Terug naar catalogus

AE1C

ActiefWetenschapSSO
NORAD 62649·PAYLOAD·🇯🇵 Japan

Gelanceerd Jan 14, 2025 vanaf Vandenberg Space Force Base

Loading…

Volgende Passages (komende 24 uur)

TLE

VersSource: Space-Track

Epoch: Sep 14, 2026, 04:29 UTC

1 62649U 25009AS  26257.18746460  .00032590  00000-0  56539-3 0  9991
2 62649  97.3995 346.8982 0000876  62.5489 297.5852 15.50806685 93055

Volg AE1C in realtime met AllMySat

Download on the App Store